sat.trackr.live / text

‹ back to catalog

STARLINK-5893

NORAD 55952 · 2023-037AQ

PAYLOAD ACTIVE UNKNOWN

§ Identity

Operator
Country
US
Launch date
2023-03-17
Launch site
AFWTR
Launch vehicle
Mass (kg)
RCS (m²)

Purposes: comms

External: N2YO · Heavens-Above · Gunter

§ Orbital elements

Epoch: 2026-05-25T03:38:40.873344Z

Period
96.11 min
Inclination
70.0002°
Eccentricity
0.0003098
Mean motion
14.98332515 rev/d
Perigee alt
569.9 km
Apogee alt
574.2 km
Semi-major
6,950.2 km
B*
1.4410e-5
RAAN
71.7843°
Arg perigee
269.1990°
Mean anomaly
90.8814°
Rev number
17,592

§ Raw data

STARLINK-58931 55952U 23037AQ  26145.15186196  .00000079  00000+0  14410-4 0  99952 55952  70.0002  71.7843 0003098 269.1990  90.8814 14.98332515175928

JSON: /api/v1/satellites/55952 · /tle

For live sub-satellite position, see the globe view (requires WebGL).

§ Visibility from observer

Set your observer location to see the next 7 days of passes ≥ 10°. The values pass through the URL so the page stays shareable.

No JS? Fill the form by hand. The geolocation button needs JavaScript.